Location: La Chaire
(48.2383°N, 1.3428°W)
Time: 05:55:43
(UTC+00:00)

Daily predictions for brighter satellites

Satellite Brightness Start Highest point End
(mag) Time Altitude Azimuth Time Altitude Azimuth Time Altitude Azimuth
Cosmos 1908 Rocket 3.6 00:00:43 10° NNW 00:05:05 70° W 00:05:05 70° W
Cosmos 1937 Rocket 4.0 00:04:14 42° WSW 00:05:31 53° WNW 00:10:36 10° NNE
Cosmos 2366 rocket 4.4 00:01:26 10° NNW 00:07:21 49° W 00:08:47 42° SW
Thor Agena Rocket 3.4 00:02:25 10° NNE 00:07:41 83° ESE 00:08:23 67° S
Cosmos 1818 3.6 00:02:40 10° NW 00:08:04 59° WSW 00:08:17 58° SW
Cosmos 2344 4.5 00:00:09 10° NW 00:09:05 70° NE 00:21:30 10° SE
Cosmos 1821 Rocket 4.0 00:02:40 10° N 00:09:08 82° E 00:10:54 51° SSE
Cosmos 2082 Rocket 4.1 00:06:32 10° WNW 00:09:43 15° W 00:10:10 15° WSW
ERBS 4.2 00:08:12 10° NW 00:09:49 26° NW 00:09:49 26° NW
Cosmos 1048 Rocket 4.0 00:09:39 10° NNW 00:15:02 79° ENE 00:15:59 60° SE
SL-16 R/B 4.4 00:10:13 10° ESE 00:15:08 25° NE 00:20:02 10° N
Cosmos 1934 Rocket 4.4 00:09:11 10° N 00:15:13 53° ENE 00:17:20 37° SE
Cosmos 2298 Rocket 4.2 00:15:04 54° SE 00:15:30 55° ESE 00:20:41 10° NNE
Resurs 1-4 Rocket 4.3 00:13:53 10° ENE 00:16:26 14° E 00:18:10 12° ESE
Cosmos 1356 Rocket 3.7 00:13:30 10° N 00:17:45 60° ENE 00:17:48 60° E
Gbstr 26 Del rocket 3.7 00:13:42 10° WNW 00:20:41 74° SSW 00:22:28 47° SE
USA 281 3.8 00:23:02 20° ESE 00:27:33 52° NE 00:33:54 10° NNW
Cosmos 1461 3.1 00:29:47 75° WSW 00:30:06 81° NW 00:34:46 10° NE
Cosmos 1703 Rocket 3.9 00:34:27 54° W 00:34:30 54° WNW 00:38:51 10° N
Cosmos 1782 Rocket 3.8 00:32:09 10° NNW 00:36:26 59° W 00:36:26 59° W
Cosmos 2221 Rocket 4.3 00:37:15 42° ESE 00:37:38 43° E 00:41:59 10° NNE
Cosmos 1378 3.6 00:39:12 60° N 00:39:12 60° N 00:42:19 10° N
BREEZE-M DEB (TANK) 4.0 00:31:23 10° WNW 00:41:23 48° SW 00:41:23 48° SW
Cosmos 44 Rocket 4.1 00:40:49 10° NNW 00:45:58 53° NE 00:49:28 19° ESE
Cosmos 2150 Rocket 4.0 00:45:15 62° SSW 00:46:12 90° N 00:51:33 10° NNE
RESURS DK-1 2.5 00:42:04 10° NNW 00:45:44 64° WNW 00:45:44 64° WNW
Cosmos 2369 Rocket 2.4 00:45:13 45° WSW 00:46:48 63° WNW 00:52:26 10° NNE
SL-27 R/B 3.7 00:44:41 10° NNW 00:46:46 36° NNW 00:46:46 36° NNW
Nadezhda 3 Rocket 4.1 00:46:54 46° SW 00:48:41 66° WNW 00:54:54 10° N
Lacrosse 5 3.8 00:50:13 17° ESE 00:50:13 17° ESE 00:52:57 10° E
Cosmos 1805 3.3 00:46:08 10° N 00:49:47 74° NNE 00:49:47 74° NNE
Cosmos 1733 3.4 00:48:07 10° N 00:51:38 65° NE 00:51:38 65° NE
Cosmos 1726 4.4 00:49:53 10° NNE 00:52:33 19° ENE 00:53:55 16° E
Meteor 1-13 Rocket 4.2 00:51:58 54° SW 00:53:11 72° WNW 00:58:44 10° N
Meteor 1-12 Rocket 4.5 00:49:03 10° NNW 00:54:50 58° W 00:55:58 49° SW
PSLV R/B 3.8 00:51:31 10° N 00:55:53 58° WNW 00:56:12 56° W
Cosmos 1943 Rocket 3.5 00:53:24 21° W 00:56:15 34° NW 01:01:19 10° NNE
Cosmos 1766 3.4 00:52:24 10° N 00:56:22 65° ENE 00:56:24 65° E
Helios 1B rocket 4.2 00:56:05 10° NE 00:59:20 22° E 01:00:03 21° ESE
Gblst 52 Del rocket 4.3 00:53:19 10° WNW 00:59:45 61° SSW 01:01:31 43° SSE
Cosmos 1867 3.5 00:59:35 56° SW 01:00:48 89° NW 01:06:20 10° NE
EO 1 Del DPAF 3.8 00:59:07 10° N 01:02:29 45° WNW 01:02:29 45° WNW
Okean 3 3.9 01:04:39 49° W 01:04:47 49° WNW 01:08:56 10° N
Cosmos 1607 4.0 01:03:30 43° SW 01:05:49 85° NW 01:12:23 10° NE
Cosmos 2263 4.5 01:04:33 41° WSW 01:06:25 62° WNW 01:12:12 10° NNE
Okean 1-7 4.4 01:07:06 26° W 01:07:28 26° WNW 01:11:06 10° NNW
Helios 1A 2.8 01:08:14 78° WSW 01:08:18 78° WSW 01:12:29 10° NNW
ATLAS CENTAUR R/B 1.4 01:09:09 61° ENE 01:09:09 61° ENE 01:12:27 10° NE
Cosmos 1066 Rocket 4.3 01:08:39 48° SW 01:10:12 68° WNW 01:15:55 10° N
Cosmos 1400 Rocket 3.6 01:06:59 10° N 01:11:01 49° ENE 01:11:53 41° ESE
Meteor 1-23 Rocket 4.2 01:10:37 50° SSW 01:12:16 86° W 01:18:08 10° N
Sich 1 Rocket 3.9 01:08:26 10° NNW 01:12:53 51° W 01:13:02 51° W
Okean 1 Rocket 3.9 01:09:47 10° N 01:14:02 45° ENE 01:15:30 33° ESE
Cosmos 1605 Rocket 3.9 01:08:08 10° N 01:14:23 90° WSW 01:16:50 40° S
SeaSat 1 3.4 01:11:36 10° NNE 01:16:11 39° NW 01:18:05 28° W
Cosmos 1125 Rocket 3.7 01:16:06 47° WSW 01:17:25 64° WNW 01:22:38 10° NNE
Cosmos 1470 3.8 01:14:31 10° N 01:18:14 40° ENE 01:19:16 33° ESE
Cosmos 494 Rocket 4.4 01:15:07 10° NW 01:19:59 41° WSW 01:20:13 41° WSW
USA 81 4.0 01:16:26 10° N 01:21:44 76° W 01:23:04 51° SSW
BREEZE-M DEB (TANK) 4.2 01:21:10 40° SSE 01:22:09 45° SE 01:33:36 10° ENE
Cosmos 1656 Rocket 4.1 01:20:25 36° WSW 01:22:17 53° WNW 01:27:43 10° NNE
NOSS 2-1 (E) 4.2 01:21:16 10° NW 01:26:11 84° NE 01:33:11 10° SE
Cosmos 1674 Rocket 3.6 01:27:05 58° SSE 01:27:53 76° E 01:32:21 10° NNE
USA 215 4.0 01:29:39 30° WSW 01:29:39 30° WSW 01:34:48 10° WNW
Cosmos 2227 Rocket 4.0 01:27:10 10° NNW 01:32:12 31° NE 01:37:11 10° ESE
CZ-2D R/B 2.5 01:27:45 10° NNE 01:33:07 56° E 01:35:15 34° SSE
Cosmos 2297 Rocket 3.5 01:30:40 10° NNW 01:36:01 40° NE 01:41:20 10° ESE
ISS -3.2 01:36:22 53° NW 01:36:42 56° NNW 01:40:03 10° ENE
Okean 2 Rocket 3.6 01:33:34 10° NNW 01:37:41 40° W 01:37:50 40° W
Cosmos 2151 Rocket 3.8 01:33:23 10° NNW 01:37:48 52° W 01:38:17 49° WSW
Cosmos 1842 3.0 01:37:36 75° SSW 01:37:54 89° W 01:41:48 10° N
MOZ.5/SAFIR/RUBIN 5/SL-8 3.9 01:45:09 47° SW 01:45:53 53° W 01:50:26 10° NNW
Meteor 2-10 4.0 01:41:43 10° NNW 01:47:13 81° W 01:49:24 37° S
Meteor 1-22 Rocket 4.5 01:43:39 10° NNW 01:49:29 60° W 01:51:51 36° SSW
Cosmos 2100 Rocket 4.2 01:43:19 10° N 01:49:36 71° E 01:54:15 19° SSE
ADEOS Rocket 4.3 01:42:51 10° SE 01:49:53 50° ENE 01:57:19 10° N
ADEOS II 3.0 01:48:27 10° NNE 01:53:24 40° E 01:56:30 21° SSE
Cosmos 2251 Rocket 4.2 01:50:45 10° NNW 01:55:53 52° ENE 02:00:59 10° SE
Cosmos 1269 Rocket 4.3 01:51:22 10° NNW 01:56:29 49° WSW 01:57:55 39° SSW
USA 276 4.3 01:57:32 17° ESE 01:57:32 17° ESE 01:58:55 10° E
Resurs 1-4 Rocket 2.0 01:51:43 10° NNE 01:57:01 89° E 01:59:15 36° SSW
Cosmos 1455 Rocket 4.2 01:53:15 10° N 01:57:22 41° ENE 02:00:49 14° SE
Meteor 1-29 3.8 01:54:12 10° NNE 01:57:26 42° E 01:58:10 36° SE
SL-16 R/B 2.5 01:54:33 27° S 01:58:09 74° WSW 02:04:27 10° NNW
Cosmos 1674 4.3 02:02:22 19° SE 02:04:24 30° E 02:07:48 10° NNE
Cosmos 1953 3.5 02:01:36 10° N 02:05:22 39° ENE 02:08:36 13° SE
COSMOS 2487 3.6 02:02:48 10° NW 02:05:05 29° WNW 02:05:05 29° WNW
Cosmos 2219 3.7 02:06:26 10° NNW 02:12:07 62° ENE 02:17:47 10° SE
USA 281 3.8 02:09:53 29° SW 02:12:13 38° WSW 02:18:16 10° NW
Cosmos 1727 Rocket 4.2 02:13:23 29° SSW 02:16:36 61° WNW 02:22:55 10° N
COSMOS 2455 2.8 02:10:58 10° NW 02:17:03 88° WSW 02:23:04 10° SSE
Cosmos 1707 2.6 02:17:33 44° SSW 02:18:39 73° W 02:22:30 10° N
Cosmos 1000 Rocket 4.5 02:16:45 24° S 02:20:45 89° WNW 02:27:03 10° N
CZ-3B R/B 3.9 02:05:32 17° SW 02:22:27 84° SSE 02:27:24 10° ENE
Okean 2 4.1 02:23:03 32° WSW 02:24:16 41° WNW 02:28:14 10° N
Cosmos 1656 4.1 02:21:09 22° S 02:24:27 53° ESE 02:29:48 10° NE
Cosmos 44 Rocket 4.2 02:22:47 10° NW 02:27:17 30° WSW 02:28:06 28° SW
Cosmos 1726 2.8 02:24:27 10° NNW 02:27:52 35° W 02:28:21 33° WSW
Cosmos 1975 Rocket 3.0 02:28:12 28° S 02:30:30 86° E 02:34:52 10° N
Cosmos 2369 Rocket 4.4 02:28:36 10° WNW 02:32:01 16° NW 02:35:29 10° N
Lacrosse 5 1.8 02:29:24 29° SW 02:32:01 77° SE 02:37:08 10° NE
Helios 1B rocket 3.2 02:30:51 10° N 02:34:42 39° WNW 02:36:21 27° WSW
Cosmos 1908 3.4 02:31:15 10° N 02:35:08 70° E 02:38:26 14° SSE
CZ-4C R/B 3.8 02:31:32 10° SSE 02:35:52 71° ENE 02:40:05 10° N
Cosmos 1758 3.9 02:34:16 10° NNW 02:38:06 40° W 02:39:30 29° SW
ARIANE 5 R/B 4.0 02:33:54 10° NNE 02:38:31 32° E 02:43:04 10° SSE
Spot 1 4.4 02:36:40 10° SSE 02:41:14 79° ENE 02:46:07 10° NNW
Meteor 1-16 Rocket 4.3 02:36:18 10° NNW 02:42:17 85° W 02:48:10 10° S
Cosmos 1626 3.0 02:41:35 15° SSE 02:44:26 45° E 02:47:59 10° NNE
TSX-5 3.7 02:42:16 10° NNW 02:45:32 71° ENE 02:49:24 10° SE
Geosat FO 4.4 02:43:19 10° NNE 02:46:42 88° WNW 02:48:23 28° SSW
Cosmos 1315 Rocket 3.2 02:43:08 10° NNW 02:46:56 44° W 02:48:49 25° SSW
ARGOS Delta rocket 3.9 02:42:40 10° N 02:47:07 59° WNW 02:49:58 23° SSW
ATLAS CENTAUR R/B 3.3 02:45:17 10° W 02:47:59 19° NNW 02:50:47 10° NNE
Cosmos 614 Rocket 3.8 02:42:56 10° NNW 02:48:03 80° WSW 02:53:09 10° SSE
Cosmos 1725 Rocket 4.0 02:42:12 10° N 02:48:31 82° W 02:54:44 10° S
Timation 2 Rocket 3.8 02:46:45 10° NNW 02:52:43 72° WSW 02:58:41 10° SSE
Cosmos 2061 Rocket 4.0 02:46:29 10° NNW 02:52:44 71° W 02:59:03 10° S
AQUA 4.4 02:48:17 10° N 02:52:49 44° WNW 02:55:39 21° SW
Cosmos 1470 4.4 02:51:18 10° NW 02:53:58 18° W 02:54:35 17° W
Cosmos 371 Rocket 3.3 02:51:15 20° SSW 02:54:37 88° ESE 02:59:32 10° NNE
Lacrosse 4 Rocket 3.4 02:51:35 10° SSE 02:55:11 24° ESE 02:58:46 10° NE
Meteor 1-28 Rocket 3.2 02:54:17 19° S 02:56:43 55° W 03:00:22 10° NNW
Cosmos 332 Rocket 4.2 02:53:27 15° S 02:57:26 61° ESE 03:02:16 10° NNE
SL-14 R/B 4.2 02:55:12 10° SSE 02:58:55 46° E 03:02:43 10° NNE
NPP 4.4 02:54:16 10° N 02:59:13 38° WNW 03:02:45 18° WSW
Cosmos 1697 Rocket 3.2 02:55:38 12° S 03:00:37 54° ESE 03:06:05 10° NE
CBERS-1 4.0 02:58:58 10° NNE 03:04:05 77° WNW 03:08:22 15° SSW
Cosmos 2233 Rocket 4.0 02:57:50 10° N 03:04:08 88° E 03:10:18 10° S
Cosmos 2016 Rocket 4.2 03:00:25 10° NNW 03:06:30 53° W 03:12:28 10° SSW
IRS-P3 4.3 03:03:46 10° NNE 03:09:09 73° ESE 03:14:28 10° S
Cosmos 1340 4.5 03:07:22 10° SSE 03:10:37 29° E 03:13:55 10° NNE
Cosmos 407 Rocket 3.6 03:05:18 10° NNW 03:10:41 88° ENE 03:16:03 10° SSE
Cosmos 1980 Rocket 3.5 03:05:50 10° S 03:10:57 36° ESE 03:16:04 10° NE
CZ-2C R/B 4.3 03:07:33 10° NE 03:11:59 30° E 03:16:28 10° SSE
CZ-2D R/B 3.5 03:08:24 10° N 03:12:49 26° WNW 03:16:34 13° WSW
ISS -2.7 03:10:33 10° WNW 03:13:50 47° N 03:17:09 10° E
Cosmos 1025 Rocket 3.1 03:11:32 15° SSW 03:15:02 64° WNW 03:19:24 10° N
Cosmos 2227 Rocket 2.3 03:11:02 10° NW 03:16:32 53° WSW 03:21:58 10° S
USA 129 3.8 03:15:13 10° SE 03:16:46 20° E 03:17:55 10° NNE
CZ-2D R/B 4.5 03:12:50 10° NNE 03:17:05 48° E 03:21:21 10° S
Tianhe-1 2.7 03:17:10 17° SSW 03:17:24 17° SSW 03:19:32 10° SSE
Cosmos 2369 4.3 03:13:14 10° S 03:18:48 57° ESE 03:24:25 10° NE
CZ-4B R/B 3.6 03:14:16 10° NNE 03:19:13 75° ESE 03:24:16 10° S
Cosmos 2297 Rocket 2.7 03:14:50 10° NW 03:20:03 39° WSW 03:25:15 10° S
IDEFIX/ARIANE 42P 2.6 03:18:28 10° N 03:23:43 69° WNW 03:28:56 10° SSW
GP-B 3.4 03:19:52 10° N 03:24:12 52° W 03:28:29 10° SSW
Cosmos 1544 Rocket 4.0 03:20:10 10° NNW 03:24:18 41° W 03:28:25 10° SSW
Cosmos 2082 3.7 03:22:46 10° NNW 03:28:28 78° WSW 03:34:10 10° SSE
USA 276 2.0 03:29:46 14° WSW 03:32:25 80° SSE 03:35:36 10° ENE
ADEOS II 3.1 03:28:21 10° N 03:33:00 33° WNW 03:37:27 11° SW
Cosmos 2056 Rocket 3.8 03:29:20 10° S 03:34:23 65° ESE 03:39:27 10° NNE
Cosmos 405 3.7 03:31:22 10° N 03:34:51 56° ENE 03:38:18 10° SSE
Cosmos 1455 Rocket 4.4 03:31:41 10° NW 03:34:56 21° W 03:37:54 11° SW
ADEOS Rocket 3.9 03:28:35 10° SSW 03:35:25 42° W 03:42:44 10° NNW
Resurs 1-4 Rocket 4.0 03:32:55 10° NNW 03:36:09 17° NW 03:39:22 10° W
Cosmos 1954 Rocket 4.4 03:31:03 10° NNW 03:36:19 71° ENE 03:41:35 10° SSE
Cosmos 1674 4.2 03:37:10 12° WSW 03:39:55 23° WNW 03:43:01 10° NNW
Cosmos 1953 3.9 03:38:40 10° NW 03:41:28 19° W 03:44:14 10° SW
SL-16 R/B 4.3 03:40:00 10° WSW 03:42:49 13° W 03:45:40 10° WNW
Cosmos 1536 Rocket 3.7 03:39:28 10° SSW 03:43:46 56° WNW 03:48:09 10° N
Cosmos 1371 Rocket 4.0 03:41:18 10° SSW 03:46:33 90° W 03:51:48 10° NNE
Meteor 2-5 Rocket 3.8 03:41:26 10° SSW 03:47:12 81° WNW 03:52:54 10° N
Meteor 1-24 Rocket 3.8 03:43:01 10° S 03:48:41 86° E 03:54:10 10° NNE
MSX 4.0 03:43:16 10° N 03:48:58 62° WNW 03:54:40 10° SSW
Cosmos 2219 4.3 03:51:21 10° NW 03:55:49 24° WSW 04:00:17 10° SSW
Cosmos 2228 3.0 03:52:08 10° N 03:56:25 83° W 04:00:41 10° S
Cosmos 1300 3.2 03:54:13 10° NNW 03:57:47 39° W 04:01:21 10° SSW
